| time (UTC) | temp F | wind direction | speed MPH | gust MPH | rain 1hr in | rain 24hr in | rain mn in | humidity % | barometer mb |
| 20260504004421 | 51 | 212 | 1.0 | 1.0 | 0.00 | 0.00 | 0.00 | 56 | 1013.9 |
| 20260504003359 | 52 | 212 | 1.0 | 2.0 | 0.00 | 0.00 | 0.00 | 53 | 1013.7 |
| 20260504001359 | 54 | 213 | 0.0 | 1.0 | 0.00 | 0.00 | 0.00 | 48 | 1013.5 |
| 20260504000401 | 56 | 213 | 0.0 | 0.0 | 0.00 | 0.00 | 0.00 | 46 | 1013.4 |
| 20260503235420 | 57 | 213 | 0.0 | 0.0 | 0.00 | 0.00 | 0.00 | 43 | 1013.2 |
| 20260503234421 | 58 | 213 | 0.0 | 4.0 | 0.00 | 0.00 | 0.00 | 42 | 1013.1 |
| 20260503233400 | 59 | 212 | 1.0 | 4.0 | 0.00 | 0.00 | 0.00 | 40 | 1013.1 |
| 20260503232400 | 60 | 250 | 1.0 | 4.0 | 0.00 | 0.00 | 0.00 | 39 | 1013.1 |
| 20260503231400 | 61 | 256 | 3.0 | 11.0 | 0.00 | 0.00 | 0.00 | 36 | 1013.0 |
| 20260503230400 | 61 | 273 | 2.0 | 10.0 | 0.00 | 0.00 | 0.00 | 36 | 1013.0 |
| 20260503225359 | 61 | 245 | 3.0 | 15.0 | 0.00 | 0.00 | 0.00 | 35 | 1013.0 |
| 20260503224400 | 62 | 225 | 4.0 | 9.0 | 0.00 | 0.00 | 0.00 | 34 | 1013.1 |
| 20260503223400 | 62 | 250 | 5.0 | 12.0 | 0.00 | 0.00 | 0.00 | 35 | 1013.1 |
| 20260503222400 | 62 | 313 | 2.0 | 12.0 | 0.00 | 0.00 | 0.00 | 35 | 1013.0 |
| 20260503221400 | 62 | 260 | 4.0 | 11.0 | 0.00 | 0.00 | 0.00 | 34 | 1013.0 |
| 20260503220442 | 63 | 285 | 4.0 | 14.0 | 0.00 | 0.00 | 0.00 | 34 | 1013.1 |
| 20260503215400 | 64 | 263 | 7.0 | 15.0 | 0.00 | 0.00 | 0.00 | 32 | 1013.1 |
| 20260503214400 | 64 | 247 | 5.0 | 11.0 | 0.00 | 0.00 | 0.00 | 32 | 1013.0 |
| 20260503213400 | 64 | 225 | 7.0 | 16.0 | 0.00 | 0.00 | 0.00 | 33 | 1013.0 |
| 20260503212400 | 64 | 213 | 6.0 | 13.0 | 0.00 | 0.00 | 0.00 | 34 | 1012.9 |
| 20260503211401 | 64 | 260 | 5.0 | 14.0 | 0.00 | 0.00 | 0.00 | 34 | 1012.9 |
| 20260503210400 | 64 | 213 | 4.0 | 12.0 | 0.00 | 0.00 | 0.00 | 34 | 1013.0 |
| 20260503205401 | 64 | 346 | 2.0 | 12.0 | 0.00 | 0.00 | 0.00 | 36 | 1012.9 |
| 20260503204401 | 64 | 267 | 5.0 | 13.0 | 0.00 | 0.00 | 0.00 | 33 | 1013.1 |
| 20260503203421 | 64 | 259 | 3.0 | 13.0 | 0.00 | 0.00 | 0.00 | 34 | 1013.2 |
| 20260503202401 | 63 | 268 | 2.0 | 14.0 | 0.00 | 0.00 | 0.00 | 37 | 1013.4 |
| 20260503201400 | 63 | 247 | 4.0 | 12.0 | 0.00 | 0.00 | 0.00 | 37 | 1013.4 |
| 20260503200421 | 62 | 259 | 4.0 | 13.0 | 0.00 | 0.00 | 0.00 | 37 | 1013.7 |
| 20260503195401 | 62 | 248 | 4.0 | 18.0 | 0.00 | 0.00 | 0.00 | 36 | 1013.8 |
| 20260503194400 | 63 | 264 | 6.0 | 13.0 | 0.00 | 0.00 | 0.00 | 37 | 1013.7 |
| 20260503193400 | 62 | 221 | 4.0 | 16.0 | 0.00 | 0.00 | 0.00 | 36 | 1014.0 |
| 20260503192401 | 63 | 238 | 5.0 | 17.0 | 0.00 | 0.00 | 0.00 | 37 | 1013.9 |
| 20260503191421 | 62 | 252 | 5.0 | 15.0 | 0.00 | 0.00 | 0.00 | 39 | 1014.1 |
| 20260503190400 | 61 | 205 | 4.0 | 18.0 | 0.00 | 0.00 | 0.00 | 40 | 1014.4 |
| 20260503185400 | 61 | 271 | 3.0 | 14.0 | 0.00 | 0.00 | 0.00 | 39 | 1014.4 |
| 20260503184401 | 60 | 257 | 3.0 | 11.0 | 0.00 | 0.00 | 0.00 | 42 | 1014.5 |
| 20260503183422 | 60 | 244 | 2.0 | 15.0 | 0.00 | 0.00 | 0.00 | 41 | 1014.7 |
| 20260503182400 | 60 | 333 | 3.0 | 11.0 | 0.00 | 0.00 | 0.00 | 38 | 1014.6 |
| 20260503181400 | 60 | 238 | 5.0 | 14.0 | 0.00 | 0.00 | 0.00 | 39 | 1014.8 |
| 20260503180422 | 60 | 265 | 7.0 | 17.0 | 0.00 | 0.00 | 0.00 | 40 | 1014.9 |
| 20260503175402 | 59 | 272 | 3.0 | 14.0 | 0.00 | 0.00 | 0.00 | 40 | 1014.9 |
| 20260503174400 | 58 | 266 | 6.0 | 15.0 | 0.00 | 0.00 | 0.00 | 41 | 1015.0 |
| 20260503173401 | 59 | 292 | 5.0 | 13.0 | 0.00 | 0.00 | 0.00 | 39 | 1015.0 |
| 20260503172400 | 58 | 217 | 4.0 | 12.0 | 0.00 | 0.00 | 0.00 | 41 | 1015.0 |
| 20260503171401 | 58 | 224 | 2.0 | 12.0 | 0.00 | 0.00 | 0.00 | 42 | 1015.2 |
| 20260503170401 | 57 | 236 | 5.0 | 14.0 | 0.00 | 0.00 | 0.00 | 41 | 1015.4 |
| 20260503150401 | 53 | 274 | 5.0 | 14.0 | 0.00 | 0.00 | 0.00 | 47 | 1015.8 |
| 20260503131401 | 48 | 277 | 3.0 | 15.0 | 0.00 | 0.00 | 0.00 | 59 | 1016.2 |
| 20260503130444 | 48 | 260 | 3.0 | 13.0 | 0.00 | 0.00 | 0.00 | 60 | 1016.1 |
| 20260503110402 | 43 | 237 | 3.0 | 10.0 | 0.00 | 0.00 | 0.00 | 70 | 1015.0 |
| 20260503090402 | 42 | 244 | 1.0 | 6.0 | 0.00 | 0.00 | 0.00 | 75 | 1013.5 |
| 20260503081403 | 42 | 191 | 0.0 | 6.0 | 0.00 | 0.00 | 0.00 | 74 | 1013.1 |
| 20260503080402 | 43 | 231 | 1.0 | 4.0 | 0.00 | 0.00 | 0.00 | 73 | 1013.1 |
| 20260503072402 | 43 | 245 | 2.0 | 8.0 | 0.00 | 0.00 | 0.00 | 74 | 1012.7 |
| 20260503071403 | 43 | 266 | 2.0 | 8.0 | 0.00 | 0.00 | 0.00 | 74 | 1012.6 |
| 20260503070403 | 43 | 264 | 1.0 | 3.0 | 0.00 | 0.00 | 0.00 | 73 | 1012.6 |
| 20260503054440 | 46 | 273 | 1.0 | 4.0 | 0.00 | 0.00 | 0.00 | 67 | 1012.6 |
| 20260503053359 | 47 | 274 | 0.0 | 6.0 | 0.00 | 0.00 | 0.00 | 66 | 1012.5 |
| 20260503052358 | 48 | 274 | 1.0 | 6.0 | 0.00 | 0.00 | 0.00 | 64 | 1012.5 |
| 20260503051359 | 48 | 270 | 2.0 | 4.0 | 0.00 | 0.00 | 0.00 | 63 | 1012.4 |
| 20260503050359 | 49 | 266 | 0.0 | 8.0 | 0.00 | 0.00 | 0.00 | 61 | 1012.4 |
| 20260503045359 | 49 | 258 | 3.0 | 10.0 | 0.00 | 0.00 | 0.00 | 60 | 1012.5 |
| 20260503044400 | 50 | 258 | 3.0 | 8.0 | 0.00 | 0.00 | 0.00 | 59 | 1012.6 |
| 20260503043358 | 50 | 254 | 3.0 | 10.0 | 0.00 | 0.00 | 0.00 | 59 | 1012.6 |
| 20260503042359 | 50 | 266 | 2.0 | 10.0 | 0.00 | 0.00 | 0.00 | 60 | 1012.7 |
| 20260503041359 | 51 | 251 | 2.0 | 10.0 | 0.00 | 0.00 | 0.00 | 59 | 1012.8 |
| 20260503040359 | 51 | 243 | 5.0 | 11.0 | 0.00 | 0.00 | 0.00 | 59 | 1012.7 |
| 20260503035359 | 51 | 256 | 4.0 | 8.0 | 0.00 | 0.00 | 0.00 | 59 | 1012.7 |
| 20260503034359 | 51 | 265 | 2.0 | 8.0 | 0.00 | 0.00 | 0.00 | 58 | 1012.6 |
| 20260503033359 | 52 | 270 | 3.0 | 10.0 | 0.00 | 0.00 | 0.00 | 58 | 1012.5 |
| 20260503032358 | 52 | 261 | 5.0 | 14.0 | 0.00 | 0.00 | 0.00 | 57 | 1012.5 |
| 20260503031420 | 52 | 274 | 2.0 | 9.0 | 0.00 | 0.00 | 0.00 | 57 | 1012.5 |
| 20260503030400 | 53 | 279 | 3.0 | 10.0 | 0.00 | 0.00 | 0.00 | 56 | 1012.5 |
| 20260503025359 | 53 | 275 | 4.0 | 10.0 | 0.00 | 0.00 | 0.00 | 55 | 1012.5 |
| 20260503024359 | 53 | 279 | 3.0 | 16.0 | 0.00 | 0.00 | 0.00 | 54 | 1012.6 |
| 20260503023359 | 54 | 273 | 2.0 | 14.0 | 0.00 | 0.00 | 0.00 | 53 | 1012.7 |
| 20260503022359 | 54 | 261 | 4.0 | 12.0 | 0.00 | 0.00 | 0.00 | 53 | 1012.5 |
| 20260503021359 | 54 | 270 | 2.0 | 8.0 | 0.00 | 0.00 | 0.00 | 52 | 1012.5 |
| 20260503020420 | 54 | 259 | 4.0 | 10.0 | 0.00 | 0.00 | 0.00 | 53 | 1012.4 |
| 20260503015400 | 54 | 240 | 4.0 | 8.0 | 0.00 | 0.00 | 0.00 | 55 | 1012.4 |
| 20260503014359 | 54 | 245 | 1.0 | 4.0 | 0.00 | 0.00 | 0.00 | 53 | 1012.4 |
| 20260503013400 | 54 | 247 | 1.0 | 5.0 | 0.00 | 0.00 | 0.00 | 52 | 1012.3 |
| 20260503012359 | 54 | 241 | 0.0 | 7.0 | 0.00 | 0.00 | 0.00 | 53 | 1012.3 |
| 20260503011400 | 55 | 268 | 2.0 | 6.0 | 0.00 | 0.00 | 0.00 | 52 | 1012.2 |
| 20260503010359 | 55 | 314 | 1.0 | 7.0 | 0.00 | 0.00 | 0.00 | 52 | 1012.1 |
| 20260503005400 | 55 | 251 | 2.0 | 4.0 | 0.00 | 0.00 | 0.00 | 51 | 1012.0 |